Wetbulb
61.70 62.21 62.47 62.24 63.13 63.82 63.94 64.54 64.60 63.15 64.58 63.19 61.30 61.71 62.74 64.91 65.80 66.96 65.92 63.62 63.03 62.94 63.71 62.38 61.26 61.58 60.23 59.81 59.04 59.19 62.72 61.62 59.00 59.41 60.96 62.83 62.30 61.46 60.52 63.04 61.56 60.66 59.06
61.14 61.53 62.13 61.97 62.83 63.15 63.74 64.48 65.34 65.06 64.58 64.62 63.51 61.80 61.77 61.43 63.40 64.17 65.45 64.43 64.89 63.60 64.06 63.66 61.33 63.45 63.64 64.42 63.35 63.93 63.37 63.25 60.79 57.90 60.51 60.98 62.20 63.93 63.36 64.17 62.79 63.20 62.51
59.93 60.63 61.66 61.65 62.52 62.88 63.45 63.60 64.12 63.64 64.84 65.18 63.53 62.75 61.98 61.18 62.11 62.97 63.34 64.29 64.98 65.42 65.63 65.24 64.33 65.64 65.08 65.32 65.07 62.52 61.36 60.62 61.40 58.95 58.55 60.68 61.89 62.77 62.74 62.61 62.16 62.28 61.24
59.75 59.44 60.44 61.61 62.11 62.75 63.49 63.87 63.49 63.04 63.19 63.91 64.24 63.79 64.20 63.51 62.61 64.87 66.39 66.19 65.78 65.88 65.77 66.16 66.05 65.75 65.65 65.86 64.52 62.92 61.08 60.57 60.98 59.75 59.56 59.45 59.77 61.12 61.69 59.42 58.18 59.23 58.13
59.56 59.55 59.72 61.81 61.73 62.33 62.47 63.58 64.04 63.31 62.58 62.17 62.35 62.52 63.13 63.01 62.38 63.38 63.60 64.06 63.99 63.82 64.47 64.55 65.09 60.37 56.00 59.07 61.04 62.60 63.10 60.99 60.33 59.31 58.66 58.83 58.82 58.60 59.00 60.30 59.29 59.47 59.42
60.06 59.93 59.83 59.79 60.90 61.46 62.44 63.26 63.42 63.05 62.63 62.44 62.12 62.01 62.18 60.24 47.46 52.02 60.47 62.52 62.58 62.38 61.99 60.95 59.47 56.38 53.32 50.60 52.20 52.26 60.38 63.04 62.06 59.91 59.31 59.08 60.69 60.27 60.66 60.32 59.45 58.46 55.97
60.20 60.48 59.69 58.87 59.62 61.05 61.19 61.85 62.86 63.43 64.09 62.79 62.51 62.39 62.54 60.18 45.49 47.82 53.84 64.65 63.74 63.56 63.42 63.22 61.03 58.68 59.55 59.90 49.49 49.56 49.92 49.84 52.35 63.60 62.44 61.89 61.81 63.01 62.77 60.91 60.64 59.71 58.63
60.14 60.25 60.02 58.24 58.41 60.26 60.96 61.58 63.21 63.98 64.04 63.56 63.14 63.10 62.81 57.69 44.37 45.58 51.71 63.97 63.79 63.53 63.74 63.50 62.92 62.19 59.69 60.50 60.84 60.88 60.68 60.76 60.54 60.86 63.92 64.46 64.45 64.58 64.03 62.69 62.07 61.72 61.20
59.53 60.06 60.17 58.72 58.30 59.54 60.08 61.61 62.82 63.24 63.57 63.24 63.11 62.87 62.31 60.36 43.43 43.15 50.80 61.53 61.24 60.62 59.94 59.82 60.26 59.61 44.49 44.97 58.53 59.11 59.56 60.01 43.07 43.32 44.09 41.87 40.93 41.56 49.28 60.85 58.12 57.03 56.14
59.60 60.03 60.64 59.60 59.02 59.07 60.23 61.57 62.46 62.59 62.00 61.04 61.31 62.40 56.44 61.49 42.15 41.58 49.14 57.28 58.57 56.86 57.03 56.23 44.19 51.77 40.72 42.07 58.91 58.91 57.81 58.72 58.03 56.08 56.45 49.78 45.02 50.93 42.30 55.45 57.08 54.52 54.97
60.64 60.35 61.08 60.72 59.68 60.83 61.65 61.93 61.57 61.31 60.58 60.62 59.93 61.06 61.02 59.65 56.78 40.73 41.39 57.02 56.07 54.46 53.56 54.07 52.35 40.47 39.98 39.63 40.79 58.34 56.50 56.91 53.18 54.85 55.97 55.95 56.13 55.80 55.22 54.48 55.59 54.43 52.52
61.22 60.18 61.17 61.55 59.34 60.27 61.72 61.60 61.21 60.61 59.79 59.45 59.10 59.12 59.40 60.67 49.78 41.70 40.27 41.17 49.19 57.36 57.52 57.83 56.54 38.19 38.02 38.73 41.53 42.73 41.04 42.90 54.74 55.78 55.48 55.08 55.18 55.14 55.58 55.42 56.15 55.49 54.93
61.23 60.59 61.43 61.93 60.20 60.73 61.24 60.77 59.67 60.33 58.24 57.93 57.50 57.42 57.79 59.24 59.84 43.99 40.84 39.72 41.04 57.43 61.04 52.67 43.53 39.77 38.40 38.91 37.83 39.18 37.73 53.05 54.46 55.20 56.08 56.39 56.86 56.64 55.82 55.01 55.80 55.05 54.66
61.47 61.18 61.66 61.48 60.35 59.98 60.79 60.73 59.31 59.10 58.39 57.80 57.48 57.63 58.33 58.37 58.82 59.37 55.54 52.42 43.78 49.42 50.73 56.03 52.07 48.38 46.65 48.18 50.59 48.36 52.98 55.41 56.14 57.19 57.02 56.95 56.14 55.72 55.66 55.41 54.62 53.70 49.33
62.00 61.77 61.76 61.56 60.91 60.03 60.09 60.16 59.37 62.45 58.42 58.81 58.97 58.85 58.86 58.56 58.59 54.69 55.63 58.38 58.39 54.36 55.94 58.82 56.99 56.25 56.05 57.32 58.36 58.77 59.52 59.15 57.56 57.76 56.73 56.85 57.13 56.09 55.62 54.97 51.23 50.64 50.99
63.33 62.03 61.62 60.93 61.02 60.25 59.14 58.79 47.61 47.02 46.14 44.53 44.99 53.93 59.35 48.61 43.66 43.91 45.71 45.27 43.62 41.26 54.63 58.60 59.35 59.29 59.04 60.41 61.93 62.48 62.12 54.92 58.63 56.12 55.57 53.70 52.09 50.46 49.30 50.58 51.13 50.34 49.64
63.87 63.38 61.95 59.40 60.84 59.64 59.31 58.31 57.47 53.16 42.89 41.98 41.31 42.34 42.28 48.38 41.27 42.39 41.24 39.22 38.11 42.03 57.67 60.69 59.59 59.60 60.34 61.20 61.36 60.18 57.30 54.23 53.41 52.71 51.12 50.22 48.47 49.30 49.29 49.95 50.06 49.58 49.41
64.78 53.00 62.33 62.00 61.09 60.57 60.07 59.43 58.92 57.82 56.88 57.07 43.72 44.28 40.04 40.89 40.09 38.78 38.64 41.88 50.17 50.51 59.56 59.55 59.93 60.56 59.48 56.86 55.37 52.06 52.09 51.03 48.07 47.21 47.79 47.62 48.25 48.61 48.68 48.58 48.52 48.79 48.02
63.74 62.22 63.06 61.76 61.70 60.08 60.91 60.73 59.74 59.32 58.83 57.88 57.41 48.94 42.48 38.11 38.52 37.78 38.46 58.35 60.99 60.02 59.49 58.95 58.81 57.21 52.88 51.51 48.09 49.37 47.63 46.10 47.20 46.90 47.02 47.73 48.17 47.83 47.06 47.33 46.89 39.55 41.30
63.34 54.36 56.77 61.99 61.24 61.20 61.24 60.82 60.62 60.33 60.12 60.38 62.32 61.91 55.19 53.12 56.98 57.41 60.11 61.70 60.74 57.97 56.78 53.56 49.85 48.73 49.78 48.11 45.20 45.47 44.01 43.66 44.56 47.20 46.93 46.47 46.29 46.85 46.23 46.03 46.16 45.80 44.92
62.78 62.44 53.64 61.30 61.31 61.15 61.26 61.04 61.26 60.82 60.60 60.87 61.53 59.56 46.57 61.78 60.28 60.18 58.46 58.83 56.52 53.96 52.14 48.97 49.55 50.08 49.18 44.75 47.31 48.61 48.68 46.95 46.30 44.91 45.10 44.99 46.07 45.33 45.47 46.01 45.49 44.92 44.67
62.44 62.34 61.37 60.61 61.08 60.93 61.03 61.49 61.71 61.56 61.64 61.92 60.19 55.27 39.55 61.17 58.92 55.62 54.23 51.12 49.57 51.86 51.71 50.71 48.20 47.41 46.53 46.50 47.84 47.13 45.99 45.13 44.83 45.58 45.62 45.71 45.53 45.47 45.99 45.31 44.77 44.13 43.02
61.72 61.44 61.88 61.02 61.16 55.28 59.78 61.35 61.59 61.87 62.57 60.25 58.48 56.75 57.44 55.97 54.24 52.85 52.20 52.07 50.32 47.94 47.98 47.60 47.04 46.03 46.37 46.51 45.15 45.32 44.09 45.03 45.62 45.73 45.21 45.17 45.47 45.44 45.64 45.37 44.45 44.00 43.00
62.26 62.02 61.63 61.07 60.44 60.82 60.75 60.84 61.97 55.09 59.83 57.49 57.04 56.78 55.59 54.62 53.63 52.40 51.61 50.29 47.47 45.64 44.66 45.33 45.50 45.10 45.13 45.49 45.43 45.62 46.58 47.32 46.69 46.40 45.82 45.79 45.14 44.02 44.81 43.98 43.83 43.01 40.62
61.70 61.39 61.35 61.13 60.48 60.37 60.31 60.74 60.47 58.84 57.27 56.85 55.90 54.91 54.12 52.36 50.84 47.94 47.12 44.80 44.18 44.92 45.40 45.13 44.98 45.38 45.57 45.55 45.60 44.48 34.77 32.45 41.01 33.93 46.56 45.76 44.92 45.22 44.63 43.83 43.44 42.92 42.60
59.90 60.61 61.05 60.72 59.34 58.99 57.67 56.78 56.73 56.63 55.35 53.99 53.27 49.44 47.64 45.83 43.96 44.00 44.83 45.93 43.75 44.07 44.91 44.57 44.97 44.66 44.38 44.02 42.52 33.87 32.33 32.32 38.43 32.25 42.93 46.08 44.86 44.44 43.86 42.57 42.22 42.14 41.33
MSLP
1011.28 1011.64 1011.86 1011.91 1011.93 1012.04 1012.02 1012.09 1012.38 1012.67 1012.60 1012.91 1013.28 1013.42 1013.64 1013.74 1013.98 1013.94 1014.20 1014.92 1015.45 1016.06 1016.71 1017.12 1017.77 1018.26 1018.71 1019.16 1019.40 1019.31 1018.79 1018.81 1019.12 1020.09 1020.83 1021.57 1022.17 1022.09 1022.81 1022.86 1023.52 1023.65 1024.08
1011.08 1011.51 1011.89 1012.09 1012.10 1012.23 1012.29 1012.39 1012.46 1012.74 1013.08 1013.28 1013.71 1013.97 1014.20 1014.38 1014.52 1014.64 1014.72 1014.95 1015.08 1015.73 1016.13 1016.66 1017.52 1017.93 1018.52 1018.70 1018.77 1018.75 1018.51 1018.77 1019.06 1019.84 1020.77 1021.76 1021.82 1021.85 1022.41 1022.87 1022.84 1022.47 1022.82
1010.79 1011.38 1011.88 1012.26 1012.32 1012.43 1012.63 1012.82 1012.55 1013.01 1013.09 1013.28 1013.90 1014.27 1014.50 1014.77 1014.96 1014.88 1015.05 1015.09 1015.43 1015.39 1016.02 1016.56 1017.28 1017.43 1017.78 1017.91 1018.17 1018.76 1018.83 1018.77 1019.25 1019.83 1020.67 1021.12 1021.47 1022.18 1022.96 1022.92 1023.22 1022.93 1023.12
1010.59 1011.15 1011.77 1012.28 1012.54 1012.64 1012.75 1012.84 1012.84 1012.91 1013.20 1013.42 1013.66 1014.06 1014.35 1014.49 1014.69 1014.60 1014.76 1015.14 1015.44 1015.74 1016.19 1016.41 1016.93 1017.44 1017.90 1018.32 1018.44 1018.77 1019.02 1018.93 1019.41 1019.86 1020.44 1020.67 1021.29 1022.22 1022.41 1022.41 1022.92 1023.09 1022.76
1010.42 1010.94 1011.66 1012.19 1012.57 1012.77 1012.92 1013.06 1013.18 1013.27 1013.32 1013.55 1013.85 1014.13 1014.41 1014.58 1014.76 1015.03 1015.10 1015.39 1015.80 1016.24 1016.51 1016.73 1017.29 1017.86 1017.95 1018.28 1018.47 1018.89 1019.45 1019.40 1019.58 1019.50 1020.00 1020.62 1020.76 1021.51 1021.74 1021.86 1022.08 1022.11 1022.60
1010.23 1010.65 1011.34 1011.89 1012.30 1012.76 1013.09 1013.32 1013.47 1013.62 1013.68 1013.79 1013.96 1014.26 1014.66 1015.35 1015.76 1015.78 1015.82 1015.97 1016.05 1016.34 1016.82 1017.69 1018.18 1018.33 1018.59 1018.87 1019.14 1019.68 1020.05 1020.28 1020.18 1019.93 1019.84 1020.08 1020.35 1020.86 1021.35 1021.54 1021.57 1021.53 1021.75
1009.99 1010.39 1011.08 1011.64 1012.06 1012.62 1013.01 1013.28 1013.54 1013.85 1014.08 1014.21 1014.43 1014.71 1015.23 1016.14 1016.61 1016.49 1016.35 1016.42 1016.63 1017.01 1017.38 1017.75 1017.86 1018.77 1019.06 1019.63 1020.07 1020.38 1020.86 1020.70 1020.69 1020.19 1019.87 1019.95 1020.11 1020.67 1021.01 1021.24 1021.07 1021.00 1021.00
1009.61 1010.03 1010.68 1011.26 1011.74 1012.33 1012.86 1013.31 1013.82 1014.14 1014.25 1014.47 1014.74 1015.10 1015.60 1016.56 1016.81 1016.83 1016.81 1016.76 1016.93 1017.17 1017.40 1017.73 1018.04 1018.52 1019.06 1019.08 1019.01 1019.33 1019.94 1020.50 1020.66 1020.49 1020.27 1020.21 1020.28 1020.31 1020.66 1020.70 1020.88 1020.90 1020.82
1008.86 1009.53 1010.15 1010.77 1011.41 1012.05 1012.58 1013.26 1013.84 1014.19 1014.47 1014.71 1014.93 1015.32 1015.64 1016.55 1017.21 1017.35 1017.30 1017.15 1017.26 1017.46 1017.65 1017.93 1018.17 1018.53 1019.13 1019.34 1019.40 1019.60 1019.93 1020.15 1021.32 1021.46 1021.33 1021.41 1021.51 1021.50 1021.30 1020.66 1020.35 1020.30 1019.54
1008.03 1008.83 1009.59 1010.26 1011.01 1011.76 1012.39 1013.11 1013.73 1014.10 1014.33 1014.40 1014.95 1015.36 1015.78 1016.17 1017.20 1017.48 1017.56 1016.88 1017.38 1017.52 1018.13 1018.60 1019.06 1019.34 1019.97 1020.25 1019.90 1019.85 1019.68 1019.51 1019.76 1020.18 1020.81 1021.13 1021.41 1021.01 1021.64 1021.01 1020.07 1019.51 1018.91
1007.44 1008.24 1009.10 1010.04 1010.78 1011.49 1012.25 1013.01 1013.55 1013.86 1013.88 1014.43 1014.75 1015.29 1015.70 1016.17 1017.08 1017.63 1017.84 1017.20 1017.21 1017.48 1017.77 1018.53 1019.02 1019.83 1020.16 1020.35 1020.38 1020.10 1019.99 1019.88 1020.03 1020.31 1020.07 1019.87 1019.77 1019.87 1019.86 1020.28 1020.28 1019.97 1019.16
1007.02 1007.74 1008.63 1009.72 1010.42 1011.18 1011.94 1012.60 1013.12 1013.50 1013.90 1014.25 1014.55 1014.95 1015.32 1015.90 1016.61 1017.39 1017.85 1017.84 1017.65 1017.27 1017.25 1017.71 1018.53 1019.49 1020.15 1020.51 1020.70 1020.71 1020.70 1020.52 1019.89 1019.34 1019.12 1018.93 1018.82 1018.88 1019.01 1019.35 1019.90 1020.09 1019.71
1006.56 1007.32 1008.20 1009.29 1010.08 1010.73 1011.52 1012.09 1012.54 1013.06 1013.10 1013.46 1013.74 1013.92 1014.24 1015.10 1015.84 1016.88 1017.53 1017.88 1018.10 1017.90 1017.60 1018.31 1018.74 1019.37 1019.93 1020.31 1020.39 1020.77 1021.17 1020.30 1019.51 1018.89 1018.51 1018.35 1018.42 1018.74 1019.50 1019.51 1019.42 1019.55 1019.53
1006.07 1007.01 1007.83 1008.65 1009.51 1010.21 1010.88 1011.46 1011.67 1012.17 1012.36 1012.54 1012.74 1013.09 1013.55 1014.18 1014.89 1015.88 1017.14 1017.95 1018.31 1018.35 1018.27 1018.29 1018.74 1019.33 1019.63 1019.66 1019.73 1020.32 1020.39 1019.63 1019.03 1018.64 1018.48 1018.50 1018.88 1018.87 1018.78 1018.58 1018.28 1018.33 1019.04
1005.34 1006.32 1007.19 1007.97 1008.89 1009.48 1009.98 1010.25 1010.76 1011.32 1011.74 1011.91 1012.19 1012.44 1012.88 1013.49 1014.02 1014.80 1015.63 1016.40 1016.94 1017.23 1017.31 1017.51 1018.02 1018.36 1018.31 1018.16 1018.15 1018.36 1018.63 1018.88 1018.94 1018.77 1018.75 1018.57 1018.48 1018.52 1018.30 1018.50 1018.60 1018.31 1017.79
1004.48 1005.38 1006.15 1006.74 1007.92 1008.39 1009.16 1009.78 1010.51 1011.00 1011.62 1012.06 1012.54 1012.49 1012.64 1013.58 1014.33 1015.03 1015.76 1016.20 1016.40 1016.68 1016.97 1016.44 1016.37 1016.72 1016.94 1017.04 1017.20 1017.56 1018.08 1018.84 1018.97 1019.29 1019.01 1018.91 1019.02 1019.45 1019.82 1019.38 1018.51 1018.02 1017.76
1003.32 1004.07 1004.95 1005.74 1006.36 1007.04 1007.77 1008.47 1009.42 1011.11 1011.89 1012.20 1012.75 1013.30 1013.54 1014.22 1014.85 1015.44 1015.84 1016.17 1016.45 1016.67 1016.12 1015.87 1016.07 1016.61 1016.90 1017.32 1017.62 1017.81 1018.09 1019.27 1019.87 1019.57 1019.68 1019.78 1019.72 1019.45 1019.50 1019.69 1018.80 1018.19 1018.04
1002.69 1003.18 1003.85 1004.60 1004.96 1005.77 1006.41 1007.15 1007.81 1008.50 1010.09 1011.42 1012.82 1013.22 1013.90 1014.40 1014.92 1015.27 1015.71 1016.21 1016.81 1016.57 1015.66 1015.77 1016.00 1016.57 1016.81 1017.58 1018.09 1019.21 1019.76 1019.94 1020.78 1020.92 1020.73 1020.24 1020.04 1019.69 1019.46 1019.26 1018.92 1018.44 1018.12
1001.85 1002.31 1003.01 1003.34 1003.88 1004.40 1005.12 1005.94 1006.54 1007.01 1007.65 1008.77 1011.47 1012.89 1013.64 1014.24 1014.81 1015.20 1015.41 1014.88 1014.39 1015.00 1015.41 1016.27 1016.77 1017.09 1018.20 1018.54 1019.36 1019.93 1020.87 1021.22 1021.03 1021.67 1021.72 1020.73 1020.16 1020.14 1019.68 1019.45 1019.11 1019.05 1019.06
1001.18 1001.75 1002.54 1002.87 1003.48 1004.03 1004.52 1004.85 1005.38 1005.99 1006.68 1007.42 1008.93 1010.38 1012.66 1013.12 1013.72 1014.40 1013.98 1013.91 1014.59 1015.66 1016.42 1017.33 1018.23 1018.70 1018.92 1019.52 1020.08 1020.70 1020.79 1021.24 1021.20 1021.04 1021.23 1021.11 1020.52 1020.58 1020.68 1019.96 1019.68 1019.45 1019.42
1000.11 1000.98 1001.77 1002.42 1002.51 1003.15 1003.71 1004.26 1004.81 1005.28 1005.83 1006.66 1007.65 1009.39 1010.84 1011.30 1012.57 1013.25 1013.96 1014.52 1015.34 1016.15 1016.71 1017.52 1018.45 1019.16 1020.20 1020.52 1020.88 1021.18 1021.47 1020.91 1021.02 1020.90 1021.51 1021.45 1021.18 1020.63 1020.95 1020.53 1020.18 1020.24 1020.15
999.41 999.99 1000.96 1001.66 1002.17 1002.58 1003.15 1003.83 1004.37 1004.72 1005.26 1006.01 1008.52 1010.57 1011.11 1011.13 1012.33 1013.28 1013.97 1015.29 1016.34 1017.19 1017.97 1018.75 1019.36 1019.75 1020.80 1020.49 1019.83 1020.87 1020.86 1021.58 1021.65 1021.37 1021.44 1021.20 1021.05 1020.96 1020.69 1020.73 1020.55 1020.44 1020.35
999.05 999.44 999.87 1001.13 1002.15 1002.42 1002.97 1003.77 1004.02 1004.59 1005.50 1007.64 1009.07 1010.17 1010.57 1011.40 1012.55 1013.83 1015.03 1016.11 1017.40 1018.44 1019.09 1019.56 1020.21 1020.41 1020.43 1020.62 1020.88 1021.13 1021.47 1022.03 1021.83 1021.62 1021.18 1021.04 1020.82 1020.73 1020.56 1020.56 1020.23 1020.09 1020.32
998.27 998.84 999.60 1000.25 1001.12 1001.84 1002.55 1003.54 1003.78 1004.96 1006.63 1008.33 1009.14 1009.84 1010.88 1012.02 1013.14 1014.31 1015.38 1016.36 1017.46 1018.65 1019.52 1019.98 1020.26 1021.17 1021.21 1021.05 1021.31 1021.61 1021.92 1021.90 1021.60 1021.45 1021.20 1020.74 1020.51 1020.65 1020.60 1020.60 1020.30 1020.07 1020.33
997.64 998.63 999.42 1000.00 1000.85 1001.89 1002.59 1003.59 1004.72 1006.15 1007.42 1008.69 1009.96 1010.93 1011.94 1013.14 1013.76 1014.99 1015.99 1017.02 1017.43 1017.42 1019.07 1020.09 1020.72 1021.04 1021.17 1021.34 1021.60 1022.22 1023.08 1022.72 1022.36 1022.39 1021.04 1020.83 1020.75 1020.51 1020.17 1020.23 1020.11 1019.98 1019.72
998.52 999.45 1000.37 1000.57 1001.72 1002.46 1003.58 1004.62 1005.72 1006.91 1008.27 1009.64 1010.76 1012.03 1013.05 1014.65 1016.18 1016.77 1016.90 1016.86 1018.60 1018.74 1018.75 1020.13 1020.67 1021.15 1021.62 1021.91 1022.49 1022.94 1023.09 1023.03 1022.62 1022.47 1022.07 1020.74 1020.57 1020.32 1020.34 1020.30 1019.87 1019.59 1019.48
Wind_Speed
6 5 5 5 6 6 6 7 9 7 6 7 7 6 6 7 7 9 11 8 10 10 10 11 9 10 6 4 3 3 6 7 9 9 8 8 8 9 9 8 10 11 10
7 6 6 6 6 6 7 8 9 10 9 9 8 6 4 4 3 5 8 6 12 9 9 12 12 11 12 11 8 6 4 3 9 12 10 10 9 8 9 7 8 8 6
9 8 7 6 6 6 7 5 10 9 10 11 12 10 6 4 5 7 5 10 9 9 10 12 11 12 11 9 8 6 6 5 8 9 10 9 8 7 7 5 5 3 4
9 8 8 7 8 6 6 7 8 9 12 11 11 11 11 8 8 11 12 11 11 10 10 11 11 11 10 10 7 6 7 7 8 8 8 7 7 7 6 6 6 6 6
10 10 9 8 8 8 7 7 7 8 10 11 12 11 11 9 7 10 11 11 12 12 11 10 7 9 11 6 6 6 8 7 7 7 7 6 6 5 8 6 8 7 8
11 10 10 10 10 9 7 7 8 9 9 10 10 10 12 9 9 9 10 10 10 11 10 10 9 10 10 11 9 10 3 7 7 5 5 4 5 6 7 9 8 8 9
11 11 10 10 11 10 9 8 8 8 8 9 10 10 10 10 6 9 5 10 10 10 9 8 8 7 8 9 8 8 7 7 7 3 5 5 6 9 9 10 10 10 11
13 12 11 11 12 11 10 9 8 7 8 7 7 8 9 7 5 6 5 7 7 6 6 5 5 6 5 4 5 5 4 5 5 5 8 7 7 5 9 10 10 11 11
14 13 12 12 13 12 12 10 9 8 7 7 7 6 6 7 6 3 4 6 6 5 4 4 4 3 4 4 6 7 7 6 4 3 4 5 5 5 6 7 9 9 11
16 14 14 13 13 13 13 11 9 8 8 7 7 6 4 7 7 6 5 5 6 5 5 5 3 2 8 6 6 7 6 5 5 5 6 6 7 7 7 10 10 11 11
16 15 14 13 13 13 12 11 10 9 8 7 7 6 7 6 9 9 8 5 7 7 7 7 7 9 9 7 6 3 2 5 2 6 7 7 7 7 7 7 10 11 11
17 16 15 14 12 12 13 12 11 10 9 9 8 7 7 7 4 10 9 7 5 6 5 5 5 11 8 7 5 3 1 4 7 7 7 7 7 7 6 6 7 10 10
17 17 16 15 13 13 13 12 11 11 10 10 9 8 8 8 8 11 12 8 5 4 2 8 11 9 6 6 11 7 4 7 7 8 8 7 6 5 6 7 9 11 13
19 17 16 16 15 13 11 11 10 11 10 10 10 9 9 9 9 10 8 7 5 7 7 7 2 1 6 5 2 8 8 8 7 7 7 7 6 7 7 7 7 7 7
19 18 17 15 16 14 13 12 12 11 11 10 10 10 10 9 10 8 9 9 9 10 7 6 6 6 7 8 6 5 3 4 5 5 5 6 6 7 7 8 6 7 9
18 17 16 15 15 13 13 12 9 2 13 9 3 4 7 10 12 13 10 6 4 12 7 6 6 5 4 3 2 1 1 3 3 5 5 6 7 8 8 8 7 7 9
19 17 15 15 15 15 14 14 13 10 3 4 5 2 8 11 10 11 8 8 7 9 7 3 3 2 2 1 1 2 4 7 4 5 5 5 3 8 7 9 9 9 10
20 16 16 16 15 15 15 14 13 13 14 13 2 5 10 12 13 13 14 13 6 5 5 4 4 3 5 6 7 6 7 8 8 7 6 3 5 6 8 8 9 10 10
18 16 16 15 16 16 15 15 14 14 13 13 11 6 8 9 10 12 14 9 6 5 4 6 5 7 7 9 10 8 7 4 4 6 7 5 5 6 6 8 8 8 7
18 17 15 14 14 15 14 14 14 13 13 12 12 10 11 10 9 10 7 5 6 8 7 9 9 7 9 9 7 5 5 3 1 2 2 5 5 5 7 8 8 9 9
13 15 11 14 14 13 13 14 13 13 13 12 11 11 12 7 9 9 9 9 10 10 10 11 9 9 7 5 5 5 3 4 4 5 4 4 4 5 5 6 7 8 10
13 14 15 15 13 13 13 13 13 12 12 9 10 9 7 10 11 12 12 12 10 10 9 9 8 7 5 4 8 4 6 5 5 4 3 3 4 5 5 6 6 6 8
12 13 13 13 12 11 7 12 13 12 10 11 12 13 11 12 13 13 13 13 11 10 9 9 7 7 7 7 7 5 5 2 2 2 3 4 4 5 7 6 8 8 9
13 12 12 12 14 14 14 13 10 10 13 12 14 13 14 14 14 16 14 14 13 11 8 6 8 8 7 7 6 5 3 3 3 3 3 5 6 5 6 7 8 9 6
10 10 11 12 11 12 11 13 13 13 14 13 13 14 14 14 15 14 14 11 9 12 12 10 7 10 10 9 8 9 4 5 6 6 5 5 6 8 6 7 9 9 11
10 9 8 11 10 11 11 12 14 15 15 14 14 13 14 13 11 10 10 13 11 9 14 9 11 13 12 10 9 7 5 5 5 6 7 5 6 8 8 10 13 10 12
Wind_Direction
128 113 94 88 69 71 64 67 82 88 109 100 69 66 56 74 79 95 103 110 114 136 144 134 126 132 117 110 183 208 186 178 138 146 136 137 166 180 157 195 157 198 168
137 129 108 104 94 78 73 77 88 108 118 119 109 103 97 82 83 94 125 138 130 144 138 137 137 155 166 184 178 228 170 160 140 150 146 160 172 166 176 191 199 208 175
148 142 132 118 117 94 88 76 87 107 112 125 130 129 127 133 158 128 134 129 124 129 142 136 160 158 174 163 184 178 151 142 144 160 166 164 147 166 175 179 210 199 212
152 146 142 139 136 118 106 102 93 91 104 106 115 127 139 146 122 122 128 127 127 126 137 140 153 160 158 156 158 159 150 148 153 168 165 159 175 165 211 190 199 214 207
159 150 149 148 144 144 128 116 104 103 104 109 108 108 114 122 108 110 105 110 114 115 112 107 92 72 66 77 145 159 147 169 167 164 168 181 181 178 209 211 230 212 215
166 156 155 161 153 152 148 134 129 123 117 114 109 102 92 85 35 60 117 115 112 110 106 107 113 108 79 54 47 43 131 176 185 186 175 207 207 214 221 229 226 223 236
175 163 161 165 165 160 161 157 143 137 131 122 119 113 104 105 80 70 62 116 120 121 125 132 134 115 148 131 114 120 86 66 40 243 271 239 238 218 235 220 229 235 240
181 170 169 171 172 168 168 162 154 152 149 145 136 125 129 105 77 68 65 109 112 113 118 125 122 134 87 138 130 124 146 174 203 219 230 242 233 248 228 237 249 249 258
182 178 175 174 172 175 175 168 168 165 160 164 162 159 156 140 144 148 247 165 138 126 115 108 122 127 83 335 175 178 186 193 140 241 289 320 321 306 299 247 234 242 251
183 181 177 175 173 178 180 177 175 180 179 183 178 182 128 160 168 185 229 167 150 149 151 136 352 304 162 216 210 187 199 202 221 204 211 217 215 216 234 243 257 255 257
182 178 176 175 175 176 174 173 175 186 178 198 187 182 185 197 163 185 222 202 159 174 166 175 177 167 186 215 286 221 298 326 213 268 259 250 246 247 246 226 255 268 276
183 179 176 174 180 173 175 176 179 181 182 185 187 193 187 188 191 183 201 244 353 177 172 163 140 168 179 201 232 278 26 289 262 264 260 266 268 268 267 264 263 259 272
185 181 177 176 185 172 178 177 178 180 186 189 186 191 185 180 187 160 186 207 228 248 20 58 102 158 175 211 239 261 210 240 258 267 268 274 287 339 317 276 269 263 267
186 185 180 179 182 178 184 181 191 185 194 191 187 188 188 185 191 170 185 185 211 226 228 230 190 233 237 299 232 204 234 254 271 289 296 308 299 264 278 292 283 305 332
184 185 185 185 185 181 195 188 195 189 197 193 192 192 187 194 192 179 163 179 185 209 200 213 189 198 218 218 217 226 252 274 262 280 292 298 305 305 310 337 324 293 276
184 186 188 188 183 187 189 189 211 226 190 226 28 227 158 99 103 125 149 183 152 142 197 229 216 220 231 246 278 259 329 144 346 343 330 343 350 347 330 303 299 323 306
190 187 189 200 185 194 191 195 190 203 105 254 214 30 67 122 129 152 169 120 140 151 230 202 205 185 139 92 50 40 59 51 0 17 24 13 337 340 340 322 323 327 325
196 187 197 194 196 195 196 197 200 192 196 204 128 212 165 145 159 144 142 135 147 224 219 196 163 128 94 71 67 52 43 50 36 8 10 343 349 341 329 321 329 334 338
198 199 201 198 205 199 198 199 203 203 202 200 135 131 106 147 145 152 171 224 208 163 151 102 110 112 100 92 93 88 84 88 51 21 345 335 352 321 316 337 341 338 328
206 211 195 210 203 205 211 204 206 206 204 209 174 151 140 157 149 154 167 127 103 98 111 113 109 105 93 101 85 62 102 91 145 188 338 347 360 336 338 343 334 336 336
202 197 208 210 203 206 205 212 209 208 206 204 210 131 164 172 139 130 124 132 120 134 119 109 115 108 106 110 96 99 105 132 72 51 9 3 346 11 345 339 342 346 338
200 202 191 209 218 201 205 211 211 208 209 183 110 125 144 140 133 131 121 109 103 97 100 113 107 116 119 132 101 125 81 52 33 30 2 8 15 1 347 349 335 332 330
197 199 187 194 208 197 171 212 210 213 151 142 145 149 151 133 127 123 121 115 108 104 108 113 114 102 96 92 85 73 79 79 93 12 5 16 340 11 327 342 336 339 342
193 189 193 188 197 191 189 201 186 147 147 157 160 144 136 132 128 124 121 119 114 114 112 104 110 114 107 101 101 114 120 32 41 45 335 352 353 0 338 339 325 337 304
179 185 183 190 163 174 163 162 159 153 156 148 141 136 131 131 130 124 127 120 130 124 125 122 121 122 120 115 102 96 76 29 27 323 324 352 337 319 330 341 335 330 332
143 153 175 153 162 151 147 144 152 149 145 141 139 126 123 116 115 124 134 126 114 124 121 129 130 118 119 103 89 67 41 18 5 341 317 322 330 331 356 335 335 335 340